Temperature
21 21 21 20 20 20 20 20 19 19 19 19 19 18 18 18 18 18 18 17 17 17 17 16 16 16 16 16 16 16 16 16 16 16 16 16 16 16 16 16 16 15 15
21 21 21 20 20 20 20 20 19 19 19 19 19 18 18 18 18 18 18 17 17 17 17 16 16 16 16 16 16 16 16 16 16 16 16 16 16 15 15 15 15 15 15
21 21 21 20 20 20 20 20 19 19 19 19 18 18 18 18 18 18 18 17 17 17 16 16 16 16 16 16 16 16 16 15 15 15 15 15 15 15 15 15 15 15 15
21 21 21 20 20 20 19 19 19 19 19 18 18 18 18 18 18 17 17 17 17 16 16 16 16 16 16 16 16 16 15 15 15 15 15 15 15 15 15 15 15 15 15
21 21 21 20 20 20 19 19 19 19 18 18 18 18 18 18 17 17 17 17 17 16 16 16 16 15 15 15 15 15 15 15 15 15 15 15 15 15 15 14 15 15 15
21 21 20 20 20 19 19 19 19 18 18 18 18 18 17 17 17 17 17 17 16 16 16 16 16 15 15 15 15 15 15 15 15 15 15 14 14 14 14 14 14 14 14
21 20 20 20 19 19 19 18 18 18 18 18 17 17 17 17 17 17 17 16 16 16 16 16 16 16 15 15 15 15 15 15 15 15 14 14 14 14 14 14 14 14 14
20 20 20 19 19 19 18 18 18 18 17 17 17 17 17 17 17 16 16 16 16 16 16 16 15 15 15 15 15 15 15 15 14 14 14 14 14 14 14 13 13 13 14
20 20 19 19 19 18 18 18 18 17 17 17 16 16 16 16 16 16 16 16 15 15 15 15 15 15 15 15 15 15 15 15 14 14 14 14 14 14 13 13 13 13 13
20 19 19 19 18 18 18 18 17 17 17 16 16 16 16 16 16 16 15 15 15 15 15 15 15 15 14 14 14 14 14 14 14 14 14 14 14 13 13 13 13 13 13
19 19 19 18 18 18 18 17 17 17 16 16 16 15 15 15 15 15 15 15 15 15 15 14 14 14 14 14 14 14 14 14 14 14 13 13 13 13 13 13 13 13 13
18 18 18 18 18 18 17 17 17 16 16 16 15 15 15 15 15 15 15 15 15 14 14 14 14 14 14 14 14 14 14 13 13 13 13 13 13 13 13 13 12 12 12
18 18 17 17 17 17 17 16 16 16 15 15 15 15 15 15 15 15 15 14 14 14 14 14 14 14 14 14 13 13 13 13 13 13 13 13 12 12 12 12 12 12 12
17 17 17 17 16 16 16 16 16 15 15 15 14 14 14 14 14 14 14 14 14 14 14 14 14 14 13 13 13 13 13 13 12 12 12 12 12 12 12 12 12 12 12
17 17 16 16 16 16 16 16 15 15 15 15 14 14 14 14 14 14 14 14 14 13 13 13 13 13 13 13 13 13 12 12 12 12 12 12 12 12 12 11 11 11 11
17 16 16 16 15 15 15 15 15 14 14 14 14 14 14 14 14 14 14 13 13 13 13 13 13 13 13 13 13 12 12 12 12 12 12 11 11 11 11 11 11 11 11
16 16 16 15 15 15 15 14 14 14 14 14 14 14 14 14 13 13 13 13 13 13 13 13 13 13 13 12 12 12 12 12 11 11 11 11 11 11 11 10 10 10 10
16 15 15 15 15 15 14 14 14 14 13 13 13 13 13 13 13 13 13 13 13 13 13 12 12 12 12 12 12 12 11 11 11 11 11 10 10 10 10 10 10 9 9
15 15 15 15 14 14 14 14 14 13 13 13 13 13 13 13 13 13 13 13 13 12 12 12 12 12 12 12 11 11 11 11 11 10 10 10 10 10 9 9 9 9 9
15 14 14 14 14 14 14 13 13 13 13 13 13 13 13 13 12 12 12 12 12 12 12 12 11 11 11 11 11 11 10 10 10 10 10 10 9 9 9 9 8 8 8
14 14 14 14 14 13 13 13 13 13 12 12 12 12 12 12 12 12 12 12 12 11 11 11 11 11 11 11 10 10 10 10 9 9 9 9 9 8 8 8 8 8 8
13 13 13 13 13 13 13 13 12 12 12 12 12 12 12 12 12 11 11 11 11 11 11 11 11 11 10 10 10 10 9 9 9 9 8 8 8 8 8 8 8 7 7
13 13 13 13 13 13 12 12 12 12 12 12 12 11 11 11 11 11 11 11 11 11 10 10 10 10 10 10 9 9 9 8 8 8 8 8 7 7 7 7 7 7 7
13 13 13 13 13 12 12 12 12 12 12 11 11 11 11 11 11 11 11 11 10 10 10 10 10 9 9 9 9 8 8 8 7 7 7 7 7 7 7 6 6 6 6
13 12 12 12 12 12 12 12 12 11 11 11 11 11 11 11 11 10 10 10 10 10 10 10 9 9 9 9 8 8 8 7 7 7 6 6 6 6 6 6 6 6 6
12 12 12 12 12 11 11 11 11 11 11 11 11 11 11 10 10 10 10 10 10 9 9 9 9 9 8 8 8 7 7 7 7 6 6 6 6 5 5 5 5 5 5
Wind_Speed
7 6 5 5 5 5 4 5 5 4 4 4 4 3 3 3 3 2 2 2 2 2 2 1 2 1 1 1 1 1 1 2 3 3 2 2 2 2 2 4 5 6 7
8 7 6 5 5 5 4 4 4 4 4 4 4 3 3 3 3 3 4 3 3 2 2 2 2 1 1 1 0 1 2 2 3 3 2 1 2 2 2 3 3 4 5
7 7 6 5 5 5 5 4 4 4 3 3 3 4 4 3 3 3 3 3 3 3 3 3 2 1 1 1 1 1 2 1 2 2 2 1 1 1 1 2 2 2 4
7 7 6 7 6 6 5 5 4 4 4 3 4 4 4 3 3 2 3 3 2 2 2 3 2 3 2 2 2 1 1 1 1 1 1 2 1 1 1 1 2 2 3
7 7 7 6 5 5 5 5 4 4 4 4 3 3 3 3 3 3 3 4 3 2 2 2 2 2 3 2 2 2 2 2 1 2 2 1 2 1 2 2 2 2 3
7 7 6 5 5 5 5 4 4 4 3 3 3 3 3 3 4 4 4 3 3 3 2 2 2 2 2 2 2 2 4 4 4 3 2 3 3 3 2 2 1 1 2
6 5 5 5 5 5 5 4 4 4 3 3 2 3 3 3 3 3 4 4 3 3 3 2 2 1 1 1 2 1 1 2 5 5 3 4 4 3 2 2 2 2 3
5 5 5 5 5 5 5 5 4 4 4 3 3 3 2 2 3 3 4 3 3 3 3 3 2 1 1 1 1 0 1 2 2 3 3 4 4 3 4 3 3 2 3
5 5 5 5 5 5 5 5 4 4 3 3 3 3 3 2 2 3 3 2 2 2 2 2 2 2 2 2 1 0 2 3 3 1 3 3 3 3 3 1 0 0 2
5 5 5 5 6 6 5 4 3 4 4 4 3 3 3 2 2 3 3 2 2 1 1 1 2 2 2 2 2 1 2 3 2 2 2 2 2 3 3 3 3 2 2
4 3 3 4 4 4 3 3 4 4 4 3 3 2 2 2 2 3 4 2 2 2 1 1 2 2 2 2 2 2 4 3 1 1 1 2 2 2 2 3 4 4 3
3 3 3 3 3 3 3 2 3 4 4 3 3 1 1 1 1 2 3 3 3 2 2 2 1 1 2 2 1 2 1 0 0 1 1 2 2 3 3 3 4 5 6
4 3 3 3 2 2 3 2 2 2 3 3 3 2 1 1 1 1 2 2 2 2 2 3 2 1 1 1 2 1 0 0 0 1 2 3 3 3 2 2 3 3 3
5 4 3 3 2 1 1 1 2 2 3 3 3 3 2 2 1 1 0 1 1 1 1 1 0 1 0 1 1 0 0 1 1 2 2 2 2 2 2 2 2 2 2
5 4 4 4 3 2 2 1 2 2 4 4 4 4 4 3 4 4 3 2 2 2 2 1 1 1 1 1 1 1 0 0 1 1 1 2 2 2 3 2 1 1 1
5 4 4 4 4 3 3 1 3 0 2 3 4 4 3 4 4 3 4 4 4 4 4 1 1 2 2 2 2 2 1 2 2 1 1 1 1 2 2 2 2 1 2
5 4 4 4 4 4 3 3 1 3 4 1 2 3 3 3 2 2 3 2 2 5 3 2 2 2 2 2 2 2 2 2 1 1 1 1 1 2 2 2 2 2 2
4 5 5 4 4 4 3 3 3 3 1 1 2 0 1 2 2 2 3 4 2 2 2 2 2 2 2 2 1 1 1 1 1 1 1 1 1 1 1 2 2 2 3
3 3 3 3 3 4 3 3 3 3 2 2 1 2 1 1 2 2 4 3 2 2 2 2 2 1 1 1 1 1 1 0 1 1 1 1 1 1 2 2 2 4 3
2 3 3 3 3 3 3 3 3 3 3 2 2 2 1 1 1 1 2 2 2 2 2 2 2 1 1 1 1 1 1 0 1 1 2 2 2 2 2 3 2 2 3
2 3 4 2 2 3 3 3 4 4 3 3 3 3 5 3 3 3 2 2 2 2 2 2 2 2 2 1 1 1 1 1 1 1 2 2 2 2 2 2 2 3 3
3 3 3 3 3 2 3 3 3 3 3 3 2 2 4 2 3 3 3 2 3 3 3 3 3 2 2 2 2 2 1 1 1 2 2 2 2 2 2 2 3 3 3
2 3 2 2 2 3 2 2 2 2 3 3 3 2 3 3 3 3 3 3 3 2 2 3 3 2 1 2 2 3 2 1 2 2 2 2 2 2 2 3 3 4 3
2 3 2 2 2 2 2 2 2 2 3 3 3 3 4 4 4 4 3 2 3 3 3 3 3 3 3 2 2 2 1 1 1 2 1 1 2 2 2 3 3 4 4
2 2 2 2 1 2 2 2 1 2 2 3 3 3 3 3 3 3 3 2 3 3 3 3 3 3 4 3 3 1 1 1 1 1 1 1 1 2 2 3 3 4 3
2 2 2 2 2 2 2 2 2 2 3 3 3 3 3 3 3 3 2 2 3 3 2 2 3 3 3 3 3 2 1 0 1 1 1 1 1 2 2 3 4 3 3
Wind_Direction
190 194 193 191 195 194 198 206 206 206 197 195 194 194 191 193 197 192 211 216 226 252 255 221 241 244 242 267 237 198 192 175 208 262 262 252 215 226 229 223 227 225 231
186 185 193 194 192 197 205 209 203 204 206 200 193 187 194 198 199 197 212 214 209 231 246 224 244 246 258 275 272 243 225 203 188 231 275 280 248 240 239 239 245 239 236
181 183 189 192 195 203 206 203 196 195 200 198 184 187 198 205 206 206 207 210 202 210 214 203 222 206 236 255 253 239 230 223 183 195 252 271 274 276 288 278 267 274 250
178 181 189 199 202 205 205 201 199 194 194 194 190 192 191 189 196 206 201 203 208 214 212 204 208 203 214 229 235 225 206 190 190 192 245 272 269 272 228 253 287 286 268
174 186 201 205 200 198 201 204 202 197 198 197 181 183 189 196 213 209 209 204 202 209 212 207 209 201 208 217 221 210 194 201 205 207 234 266 272 275 254 243 253 275 280
176 191 197 193 192 194 199 198 192 194 192 176 180 182 190 223 235 215 204 204 201 195 205 224 224 208 236 247 242 215 198 203 208 209 225 232 250 243 243 242 233 299 286
179 186 185 188 193 200 197 190 195 194 179 174 191 186 199 227 222 205 201 189 192 191 194 206 229 251 235 258 269 269 264 234 204 196 208 233 239 235 223 239 231 230 248
177 182 184 185 195 198 191 192 196 186 180 188 197 199 192 214 200 197 191 182 185 203 207 203 200 239 259 214 194 341 311 296 246 211 219 236 233 228 211 217 223 248 279
181 185 189 189 194 197 196 198 191 175 182 187 185 185 180 216 190 177 163 160 177 215 225 205 197 205 243 187 142 262 315 313 315 229 213 234 241 234 197 150 6 24 301
191 190 186 186 189 194 195 194 185 174 185 182 188 192 182 183 167 151 154 154 164 216 270 258 219 205 223 180 170 183 268 288 319 359 345 315 294 275 227 196 197 208 243
181 164 158 167 174 176 175 174 167 170 175 179 178 180 169 177 165 137 137 150 182 186 215 263 275 249 237 222 184 203 241 252 284 333 330 324 320 296 272 232 207 198 208
149 150 153 157 156 146 147 166 169 165 168 177 173 172 203 209 175 143 134 150 165 171 213 235 240 229 229 242 224 263 261 271 354 360 337 310 303 293 282 265 243 229 227
144 150 150 138 133 138 150 161 158 163 171 179 178 186 218 237 230 157 136 158 176 192 228 225 212 206 222 241 256 259 265 64 47 335 297 288 283 285 297 306 304 282 273
155 159 149 141 138 119 125 152 162 175 181 181 181 189 201 210 214 222 211 201 187 188 247 286 83 113 55 317 326 341 130 188 203 236 264 287 310 333 334 322 312 316 321
160 162 156 153 156 146 122 137 181 204 195 188 193 190 187 211 237 210 190 204 201 192 159 74 40 32 2 334 325 311 285 297 265 279 291 313 326 332 325 333 341 345 330
156 162 165 161 158 154 143 59 10 286 193 189 198 194 215 221 223 201 191 193 179 150 131 146 199 225 235 244 254 273 268 249 251 254 263 284 299 304 313 327 345 331 303
161 167 165 163 163 164 161 154 122 7 26 29 224 203 202 206 198 185 168 153 137 131 137 192 216 225 237 247 240 238 255 260 251 237 247 276 285 292 300 316 322 313 297
165 166 168 172 168 171 173 169 160 151 137 344 348 331 184 172 172 172 140 106 91 116 184 212 229 233 224 228 229 231 257 300 325 306 299 303 300 301 308 312 305 297 295
167 169 168 166 169 172 173 170 165 166 179 203 294 335 329 59 77 114 132 134 173 202 219 230 227 214 215 199 195 187 176 179 336 320 320 304 295 293 290 294 297 301 299
169 171 164 159 161 164 171 173 179 183 190 197 212 232 212 103 109 150 173 191 191 197 201 210 219 207 188 178 173 165 127 71 340 311 294 292 288 278 273 282 296 305 300
167 168 167 161 171 177 178 181 184 187 196 205 220 220 183 173 185 188 195 204 208 205 200 200 201 194 188 174 161 152 148 243 266 275 283 290 295 297 293 287 283 283 290
159 156 160 168 173 177 179 176 179 188 197 203 219 210 185 174 173 174 189 199 210 210 199 186 188 194 187 183 180 169 184 246 277 278 284 288 292 293 295 299 301 296 297
148 139 141 152 156 168 174 161 160 187 193 190 188 187 186 193 190 190 193 189 178 170 168 157 150 140 146 152 154 153 160 206 258 257 257 280 288 291 294 292 295 299 291
137 139 144 142 138 144 158 164 173 189 190 188 192 195 199 199 197 194 194 186 169 167 172 167 159 151 147 143 142 147 166 195 228 233 214 241 272 284 291 296 295 292 288
137 133 128 126 147 160 167 176 191 202 196 194 200 201 201 189 187 190 187 178 162 157 157 158 162 161 159 153 149 162 165 135 155 194 197 194 250 286 295 297 298 295 288
137 150 146 142 151 163 167 181 202 199 192 188 187 188 183 176 177 176 170 163 158 155 155 167 173 175 177 175 167 168 179 210 286 309 275 224 255 275 289 288 295 294 292
Height
1523 1525 1526 1527 1527 1528 1528 1528 1528 1529 1529 1529 1529 1529 1528 1528 1527 1527 1526 1526 1525 1524 1524 1524 1523 1523 1523 1523 1523 1523 1523 1523 1522 1522 1523 1522 1522 1522 1522 1521 1521 1520 1520
1521 1522 1523 1524 1525 1525 1525 1526 1526 1526 1526 1526 1526 1526 1526 1525 1525 1524 1524 1523 1522 1521 1520 1521 1521 1521 1521 1521 1521 1520 1521 1521 1520 1520 1519 1519 1519 1519 1519 1518 1518 1518 1517
1518 1519 1520 1521 1522 1522 1522 1523 1523 1523 1523 1524 1524 1523 1523 1523 1522 1522 1521 1520 1520 1520 1519 1519 1519 1519 1518 1518 1518 1518 1518 1518 1518 1517 1517 1517 1517 1517 1516 1516 1515 1515 1515
1516 1517 1517 1518 1518 1519 1519 1520 1520 1520 1521 1521 1521 1521 1520 1520 1520 1519 1519 1518 1518 1517 1517 1517 1517 1516 1516 1516 1515 1515 1515 1515 1515 1515 1514 1514 1514 1514 1513 1513 1512 1512 1512
1512 1513 1514 1515 1515 1516 1516 1517 1517 1517 1518 1518 1517 1517 1517 1518 1517 1517 1517 1516 1516 1515 1515 1515 1515 1515 1514 1514 1513 1513 1512 1512 1512 1511 1511 1511 1511 1511 1510 1510 1509 1509 1509
1509 1510 1511 1511 1512 1512 1512 1513 1513 1514 1514 1514 1514 1514 1514 1514 1514 1514 1514 1514 1513 1513 1513 1513 1512 1513 1512 1512 1511 1510 1510 1509 1509 1509 1508 1508 1508 1508 1508 1507 1507 1506 1505
1505 1506 1507 1507 1508 1508 1509 1509 1509 1510 1510 1510 1510 1511 1511 1511 1511 1511 1511 1511 1511 1511 1511 1510 1510 1510 1510 1509 1509 1508 1508 1507 1507 1507 1506 1505 1505 1505 1505 1504 1504 1503 1503
1501 1502 1503 1504 1504 1504 1505 1505 1505 1506 1506 1506 1507 1507 1507 1508 1508 1508 1509 1509 1509 1509 1509 1509 1508 1508 1508 1507 1507 1506 1506 1505 1504 1504 1503 1503 1503 1503 1503 1502 1502 1501 1501
1498 1498 1500 1500 1501 1501 1501 1501 1502 1502 1503 1503 1504 1504 1504 1505 1505 1506 1506 1506 1506 1507 1507 1507 1507 1506 1506 1506 1505 1504 1503 1503 1503 1502 1501 1501 1501 1500 1500 1500 1499 1498 1497
1494 1495 1496 1497 1497 1497 1497 1498 1499 1499 1499 1500 1501 1501 1501 1502 1503 1503 1504 1504 1504 1504 1504 1505 1505 1504 1504 1503 1503 1502 1501 1500 1500 1500 1499 1498 1498 1498 1497 1497 1496 1495 1494
1491 1492 1493 1493 1494 1494 1494 1495 1495 1496 1496 1497 1497 1498 1498 1499 1500 1500 1501 1501 1502 1502 1502 1502 1502 1502 1501 1501 1500 1500 1499 1498 1498 1497 1496 1496 1496 1495 1495 1494 1494 1493 1492
1488 1489 1490 1491 1491 1492 1492 1492 1492 1492 1493 1493 1494 1494 1495 1496 1497 1497 1498 1499 1500 1500 1499 1499 1499 1499 1499 1499 1498 1497 1497 1496 1495 1495 1494 1493 1493 1492 1492 1491 1491 1490 1490
1486 1487 1487 1488 1489 1490 1490 1490 1489 1490 1490 1490 1491 1491 1492 1494 1494 1495 1496 1497 1497 1497 1497 1497 1497 1497 1496 1496 1496 1495 1494 1494 1493 1492 1491 1491 1490 1490 1489 1488 1487 1487 1486
1482 1483 1484 1486 1486 1487 1487 1488 1488 1488 1488 1488 1488 1489 1490 1491 1491 1492 1493 1494 1494 1495 1495 1495 1495 1495 1494 1494 1493 1493 1492 1491 1491 1490 1489 1489 1488 1487 1486 1485 1484 1483 1482
1479 1480 1482 1483 1484 1485 1486 1486 1486 1486 1486 1486 1487 1487 1488 1488 1489 1490 1491 1491 1492 1492 1492 1492 1492 1492 1492 1491 1491 1490 1490 1489 1489 1488 1487 1486 1485 1484 1483 1482 1481 1479 1478
1477 1478 1480 1481 1482 1483 1483 1484 1484 1485 1485 1485 1486 1487 1487 1488 1488 1489 1489 1490 1490 1490 1490 1489 1489 1489 1489 1489 1488 1488 1487 1487 1486 1485 1484 1483 1482 1481 1480 1479 1478 1476 1475
1475 1476 1478 1479 1480 1481 1482 1482 1482 1483 1483 1484 1484 1485 1485 1486 1486 1487 1487 1487 1488 1488 1487 1486 1486 1486 1486 1486 1486 1485 1485 1484 1484 1483 1481 1480 1479 1478 1477 1475 1474 1473 1471
1474 1475 1476 1477 1478 1479 1480 1481 1481 1481 1481 1481 1483 1483 1484 1484 1484 1485 1485 1485 1485 1485 1484 1484 1484 1484 1483 1483 1483 1482 1482 1481 1481 1480 1478 1477 1476 1475 1473 1472 1471 1470 1468
1473 1474 1475 1475 1476 1478 1479 1480 1480 1480 1481 1481 1481 1482 1482 1482 1482 1483 1483 1483 1482 1482 1481 1481 1481 1481 1480 1480 1480 1479 1479 1478 1477 1476 1475 1474 1472 1471 1470 1469 1468 1466 1465
1472 1473 1473 1474 1475 1476 1477 1478 1478 1479 1479 1480 1480 1480 1480 1480 1480 1480 1480 1480 1480 1479 1479 1479 1479 1479 1478 1477 1477 1476 1475 1474 1473 1472 1471 1470 1469 1468 1466 1465 1464 1463 1461
1469 1471 1472 1473 1474 1474 1475 1476 1476 1477 1477 1477 1478 1478 1478 1478 1477 1478 1478 1478 1478 1477 1477 1477 1476 1476 1475 1474 1473 1473 1472 1471 1470 1469 1467 1466 1465 1464 1463 1462 1460 1459 1458
1467 1468 1469 1470 1471 1472 1473 1473 1474 1474 1475 1475 1475 1475 1476 1476 1475 1475 1475 1475 1475 1475 1475 1474 1473 1473 1472 1471 1470 1469 1468 1467 1466 1465 1463 1462 1461 1460 1459 1458 1457 1455 1454
1466 1465 1467 1468 1469 1470 1470 1471 1471 1472 1472 1472 1473 1473 1473 1473 1473 1473 1473 1473 1473 1472 1472 1471 1470 1469 1469 1468 1467 1466 1464 1463 1462 1461 1459 1458 1457 1456 1455 1454 1453 1451 1450
1464 1464 1465 1466 1466 1467 1468 1468 1469 1469 1469 1470 1470 1470 1470 1471 1471 1471 1471 1470 1470 1469 1469 1468 1467 1466 1465 1464 1463 1462 1460 1459 1458 1457 1455 1454 1453 1452 1451 1450 1448 1447 1446
1462 1462 1463 1463 1464 1465 1465 1466 1466 1466 1466 1466 1467 1467 1468 1468 1468 1468 1468 1467 1467 1466 1465 1465 1464 1463 1462 1461 1459 1458 1457 1455 1454 1453 1451 1450 1449 1448 1447 1445 1444 1443 1441
1460 1461 1461 1462 1462 1463 1463 1463 1463 1463 1463 1463 1463 1464 1464 1465 1465 1465 1465 1464 1464 1463 1462 1462 1461 1460 1458 1457 1456 1455 1453 1452 1450 1449 1448 1446 1445 1443 1442 1441 1439 1438 1437